MMZ31A LPPT-LPFR

Flight info

Callsign MMZ31A
Flight time 0h 24m
Altitude 21000
Route DUZOP DCT ODEMI
Aircraft B763/H-SDE3FGHIM3RWXY/LB1

Departure

Time 2026-04-28 13:19
Airport Lisbon Humberto Delgado Airport (LPPT)

Arrival

Time 2026-04-28 13:44
Airport Faro - Gago Coutinho International Airport (LPFR)
Time Latitude Longitude Altitude Speed Heading
2026-04-28 12:48 38.77607 -9.13196 382 ft 0 kts 77°
2026-04-28 13:08 38.77605 -9.13212 382 ft 2 kts 77°
2026-04-28 13:08 38.77601 -9.13230 382 ft 2 kts 77°
2026-04-28 13:08 38.77598 -9.13249 382 ft 2 kts 78°
2026-04-28 13:08 38.77597 -9.13268 382 ft 2 kts 102°
2026-04-28 13:09 38.77602 -9.13286 382 ft 2 kts 120°
2026-04-28 13:09 38.77611 -9.13302 382 ft 2 kts 138°
2026-04-28 13:09 38.77623 -9.13312 382 ft 2 kts 157°
2026-04-28 13:09 38.77638 -9.13318 382 ft 1 kts 175°
2026-04-28 13:10 38.77644 -9.13318 382 ft 1 kts 183°
2026-04-28 13:10 38.77646 -9.13318 382 ft 0 kts 181°
2026-04-28 13:14 38.77633 -9.13318 382 ft 3 kts 181°
2026-04-28 13:14 38.77587 -9.13316 382 ft 10 kts 174°
2026-04-28 13:15 38.77499 -9.13296 382 ft 13 kts 169°
2026-04-28 13:15 38.77403 -9.13271 382 ft 14 kts 170°
2026-04-28 13:15 38.77331 -9.13311 382 ft 11 kts 243°
2026-04-28 13:15 38.77311 -9.13413 382 ft 12 kts 260°
2026-04-28 13:16 38.77293 -9.13514 382 ft 11 kts 259°
2026-04-28 13:16 38.77277 -9.13617 383 ft 12 kts 258°
2026-04-28 13:16 38.77259 -9.13726 383 ft 12 kts 258°
2026-04-28 13:16 38.77231 -9.13833 383 ft 12 kts 230°
2026-04-28 13:17 38.77141 -9.13894 383 ft 18 kts 203°
2026-04-28 13:17 38.77010 -9.13963 383 ft 20 kts 203°
2026-04-28 13:17 38.76873 -9.14037 383 ft 21 kts 203°
2026-04-28 13:17 38.76735 -9.14111 383 ft 21 kts 203°
2026-04-28 13:18 38.76630 -9.14168 383 ft 5 kts 204°
2026-04-28 13:18 38.76597 -9.14222 383 ft 8 kts 265°
2026-04-28 13:18 38.76613 -9.14296 383 ft 8 kts 292°
2026-04-28 13:18 38.76682 -9.14360 383 ft 17 kts
2026-04-28 13:19 38.76868 -9.14269 383 ft 41 kts 24°
2026-04-28 13:19 38.77398 -9.13986 383 ft 130 kts 23°
2026-04-28 13:19 38.78477 -9.13401 624 ft 199 kts 24°
2026-04-28 13:19 38.79899 -9.12598 1414 ft 244 kts 27°
2026-04-28 13:20 38.81334 -9.11647 2782 ft 236 kts 29°
2026-04-28 13:20 38.82853 -9.10576 3139 ft 264 kts 30°
2026-04-28 13:20 38.84445 -9.09404 4087 ft 267 kts 31°
2026-04-28 13:20 38.86043 -9.08203 5063 ft 269 kts 33°
2026-04-28 13:21 38.87394 -9.06590 5972 ft 272 kts 59°
2026-04-28 13:21 38.87996 -9.04299 6920 ft 275 kts 87°
2026-04-28 13:21 38.87676 -9.01928 7830 ft 279 kts 115°
2026-04-28 13:21 38.86487 -8.99960 8752 ft 284 kts 143°
2026-04-28 13:22 38.84736 -8.98930 9691 ft 287 kts 169°
2026-04-28 13:22 38.82724 -8.98965 10442 ft 299 kts 189°
2026-04-28 13:22 38.80533 -8.99238 10636 ft 330 kts 178°
2026-04-28 13:22 38.78144 -8.98871 10857 ft 360 kts 169°
2026-04-28 13:23 38.75635 -8.98115 11378 ft 380 kts 165°
2026-04-28 13:23 38.73067 -8.97194 12412 ft 384 kts 164°
2026-04-28 13:23 38.70506 -8.96191 13333 ft 390 kts 163°
2026-04-28 13:23 38.67904 -8.95126 14258 ft 395 kts 162°
2026-04-28 13:24 38.65310 -8.94037 15188 ft 398 kts 162°
2026-04-28 13:24 38.62685 -8.92923 16038 ft 403 kts 162°
2026-04-28 13:24 38.60003 -8.91778 16906 ft 408 kts 162°
2026-04-28 13:24 38.57295 -8.90619 17775 ft 412 kts 162°
2026-04-28 13:25 38.54599 -8.89464 18596 ft 416 kts 162°
2026-04-28 13:25 38.51844 -8.88283 19440 ft 420 kts 162°
2026-04-28 13:25 38.49061 -8.87091 20278 ft 424 kts 162°
2026-04-28 13:25 38.46241 -8.85884 20868 ft 431 kts 162°
2026-04-28 13:26 38.43389 -8.84665 20861 ft 434 kts 162°
2026-04-28 13:26 38.40552 -8.83452 20870 ft 428 kts 162°
2026-04-28 13:26 38.37742 -8.82251 20870 ft 426 kts 162°
2026-04-28 13:26 38.34887 -8.81033 20868 ft 428 kts 162°
2026-04-28 13:27 38.32068 -8.79831 20877 ft 429 kts 162°
2026-04-28 13:27 38.29258 -8.78634 20864 ft 428 kts 162°
2026-04-28 13:27 38.26447 -8.77436 20875 ft 428 kts 162°
2026-04-28 13:27 38.23595 -8.76224 20874 ft 429 kts 162°
2026-04-28 13:28 38.20782 -8.75028 20868 ft 428 kts 162°
2026-04-28 13:28 38.17963 -8.73831 20871 ft 428 kts 162°
2026-04-28 13:28 38.15110 -8.72621 20887 ft 429 kts 162°
2026-04-28 13:28 38.12273 -8.71417 20866 ft 429 kts 162°
2026-04-28 13:29 38.09478 -8.70233 20878 ft 428 kts 162°
2026-04-28 13:29 38.06648 -8.69035 20874 ft 429 kts 162°
2026-04-28 13:29 38.03807 -8.67834 20884 ft 429 kts 162°
2026-04-28 13:29 38.00992 -8.66644 20876 ft 429 kts 162°
2026-04-28 13:30 37.98164 -8.65450 20885 ft 429 kts 162°
2026-04-28 13:30 37.95328 -8.64253 20875 ft 429 kts 162°
2026-04-28 13:30 37.92479 -8.63052 20881 ft 429 kts 162°
2026-04-28 13:30 37.89656 -8.61863 20873 ft 429 kts 162°
2026-04-28 13:31 37.83982 -8.59477 20883 ft 430 kts 162°
2026-04-28 13:31 37.81170 -8.58294 20800 ft 424 kts 162°
2026-04-28 13:31 37.78380 -8.57122 20051 ft 423 kts 162°
2026-04-28 13:32 37.75655 -8.55978 19969 ft 404 kts 162°
2026-04-28 13:32 37.73013 -8.54870 19538 ft 398 kts 162°
2026-04-28 13:32 37.70399 -8.53775 19023 ft 393 kts 162°
2026-04-28 13:32 37.67817 -8.52695 18516 ft 387 kts 162°
2026-04-28 13:33 37.65280 -8.51633 18021 ft 383 kts 162°
2026-04-28 13:33 37.62781 -8.50589 17522 ft 380 kts 162°
2026-04-28 13:33 37.60272 -8.49540 17037 ft 377 kts 162°
2026-04-28 13:33 37.57798 -8.48507 16553 ft 375 kts 162°
2026-04-28 13:34 37.55335 -8.47480 16047 ft 372 kts 162°
2026-04-28 13:34 37.52893 -8.46462 15559 ft 369 kts 162°
2026-04-28 13:34 37.50444 -8.45442 15033 ft 368 kts 162°
2026-04-28 13:34 37.48039 -8.44441 14437 ft 366 kts 162°
2026-04-28 13:35 37.45618 -8.43434 13833 ft 364 kts 162°
2026-04-28 13:35 37.43251 -8.42450 13253 ft 362 kts 162°
2026-04-28 13:35 37.40852 -8.41454 12638 ft 360 kts 162°
2026-04-28 13:35 37.38494 -8.40475 12024 ft 359 kts 162°
2026-04-28 13:36 37.36108 -8.39485 11388 ft 357 kts 162°
2026-04-28 13:36 37.33778 -8.38519 10771 ft 355 kts 162°
2026-04-28 13:36 37.31430 -8.37547 10145 ft 353 kts 162°
2026-04-28 13:36 37.29109 -8.36585 9525 ft 352 kts 162°
2026-04-28 13:37 37.26813 -8.35636 8914 ft 350 kts 162°
2026-04-28 13:37 37.24491 -8.34677 8296 ft 348 kts 162°
2026-04-28 13:37 37.22195 -8.33728 7623 ft 346 kts 161°
2026-04-28 13:37 37.19971 -8.32811 6824 ft 336 kts 161°
2026-04-28 13:38 37.17778 -8.31906 6086 ft 327 kts 160°
2026-04-28 13:38 37.15653 -8.31029 5355 ft 320 kts 160°
2026-04-28 13:38 37.13562 -8.30166 4594 ft 313 kts 160°
2026-04-28 13:38 37.11518 -8.29324 3934 ft 303 kts 160°
2026-04-28 13:39 37.09598 -8.28534 3855 ft 277 kts 160°
2026-04-28 13:39 37.07805 -8.27770 3877 ft 270 kts 154°
2026-04-28 13:39 37.06294 -8.26421 3930 ft 267 kts 132°
2026-04-28 13:39 37.05358 -8.24549 3864 ft 251 kts 103°
2026-04-28 13:40 37.05082 -8.22451 3767 ft 242 kts 97°
2026-04-28 13:40 37.04824 -8.20356 3441 ft 243 kts 100°
2026-04-28 13:40 37.04517 -8.18280 3131 ft 243 kts 100°
2026-04-28 13:40 37.04225 -8.16219 2815 ft 244 kts 99°
2026-04-28 13:41 37.03930 -8.14125 2468 ft 243 kts 99°
2026-04-28 13:41 37.03639 -8.12079 2151 ft 234 kts 100°
2026-04-28 13:41 37.03355 -8.10138 1797 ft 215 kts 100°
2026-04-28 13:41 37.03094 -8.08391 1366 ft 201 kts 100°
2026-04-28 13:42 37.02834 -8.06686 894 ft 197 kts 100°
2026-04-28 13:42 37.02605 -8.05080 686 ft 172 kts 95°
2026-04-28 13:42 37.02481 -8.03737 658 ft 140 kts 96°
2026-04-28 13:42 37.02333 -8.02596 501 ft 128 kts 98°
2026-04-28 13:43 37.02123 -8.01428 475 ft 148 kts 102°
2026-04-28 13:43 37.01948 -8.00151 312 ft 142 kts 97°
2026-04-28 13:43 37.01782 -7.99002 81 ft 126 kts 98°
2026-04-28 13:43 37.01645 -7.97991 28 ft 96 kts 101°
2026-04-28 13:44 37.01559 -7.97395 23 ft 66 kts 100°
2026-04-28 13:44 37.01478 -7.96819 25 ft 63 kts 100°
2026-04-28 13:44 37.01454 -7.96663 24 ft 9 kts 99°
2026-04-28 13:44 37.01504 -7.96577 25 ft 13 kts
2026-04-28 13:45 37.01539 -7.96569 25 ft 0 kts
2026-04-28 13:45 37.01545 -7.96568 25 ft 2 kts 10°
2026-04-28 13:45 37.01573 -7.96560 25 ft 5 kts 12°
2026-04-28 13:45 37.01630 -7.96548 25 ft 15 kts
2026-04-28 13:46 37.01733 -7.96527 26 ft 13 kts
2026-04-28 13:46 37.01798 -7.96605 27 ft 15 kts 278°
2026-04-28 13:46 37.01774 -7.96704 27 ft 0 kts 202°
2026-04-28 13:46 37.01752 -7.96711 27 ft 6 kts 191°
2026-04-28 13:47 37.01736 -7.96714 26 ft 0 kts 190°
2026-04-28 13:47 37.01745 -7.96712 27 ft 0 kts 189°